Lid_Strength_Index
1 1 0 0 0 -0 -0 -1 -1 -1 -0 -0 -0 -0 -0 0 0 1 4 2 2 -3 -1 5 5 6 6 6 6 8 13 14 13 12 12 9 10 9 9 10 10 9 9 8 7
1 1 1 1 0 0 -0 -1 -1 -1 -0 -0 -0 -0 -0 -0 2 5 1 -2 -3 -2 5 6 7 7 9 8 7 10 13 12 11 12 11 10 11 12 12 11 12 10 9 7 7
1 1 1 1 0 -0 -0 -1 -1 -1 -1 -1 -0 -0 -0 1 5 5 -1 -2 -3 -2 4 5 6 7 9 9 9 9 12 10 9 9 9 10 10 10 12 12 11 10 10 9 8
1 1 1 1 1 0 -0 -1 -1 -1 -1 -0 -0 -0 -0 3 12 3 -2 -2 -2 2 5 6 7 9 10 11 9 11 9 9 8 9 9 10 9 10 10 9 9 9 9 9 9
1 1 1 1 1 0 -0 -0 -1 -1 -1 -0 -0 -0 3 7 7 1 -1 -1 1 4 6 7 9 9 11 11 10 11 11 9 9 9 9 9 10 10 10 8 8 9 9 9 9
1 1 1 1 1 0 -0 -0 -1 -1 -0 -0 -0 1 5 10 3 0 1 2 4 6 7 7 8 8 10 10 12 11 10 10 10 9 10 10 11 11 9 9 9 9 10 10 10
1 2 1 1 0 -0 -0 -1 -1 -1 -0 -0 0 2 6 7 3 1 1 4 4 5 6 6 7 9 9 11 10 11 12 11 11 11 11 11 12 12 10 10 10 10 10 9 9
1 2 2 2 1 1 1 0 -0 0 1 1 0 4 9 5 5 4 5 6 5 5 6 6 7 8 9 9 11 12 14 15 12 11 11 12 15 11 10 11 10 10 11 10 10
1 2 1 1 1 1 1 1 1 1 1 1 4 6 9 4 7 6 6 7 7 7 7 7 8 10 10 13 15 14 17 16 14 11 12 13 15 11 10 11 10 12 11 11 10
2 2 2 2 1 1 1 0 1 2 2 2 3 9 8 8 7 7 7 7 8 8 9 9 11 13 14 15 19 17 18 17 17 12 13 14 15 12 11 10 12 12 11 11 11
2 3 2 2 1 1 2 4 6 8 7 8 8 9 9 7 7 8 7 8 8 9 13 11 14 16 14 14 14 16 16 17 15 12 14 14 14 13 10 11 12 11 12 12 12
3 3 3 3 2 1 2 6 7 7 9 6 5 7 6 6 8 8 7 10 10 13 12 14 16 13 13 12 14 15 16 17 15 13 14 14 15 12 11 12 13 13 13 12 12
2 3 3 3 2 3 6 7 6 7 10 7 6 7 8 7 9 9 9 10 12 13 13 15 14 12 12 13 14 15 16 16 16 14 14 15 16 14 12 13 12 12 12 13 13
2 3 3 3 4 4 8 7 6 8 13 11 10 10 10 9 11 10 10 11 12 14 13 14 12 12 13 14 14 16 13 14 15 17 19 16 20 15 14 15 14 14 14 14 14
3 3 3 2 4 5 7 8 8 8 20 12 12 8 10 12 12 12 10 11 13 13 14 13 14 15 15 14 13 15 14 15 16 17 18 17 19 16 15 16 15 15 14 14 13
2 2 2 3 3 5 7 7 7 13 19 14 12 12 13 12 12 12 12 11 11 13 13 13 13 13 13 13 13 13 15 15 16 17 20 17 17 17 16 15 15 14 13 13 13
2 2 3 2 4 5 6 6 13 18 11 14 14 13 13 14 13 13 14 15 15 17 17 14 14 13 12 15 14 14 16 19 20 21 20 16 17 16 14 13 13 14 13 13 12
3 2 3 2 3 4 5 10 17 13 13 10 11 11 12 12 11 12 13 14 13 14 15 16 17 14 12 13 14 15 14 17 23 21 19 16 18 15 13 13 13 13 13 13 14
3 4 4 4 3 3 8 15 15 12 10 11 10 12 13 11 11 11 13 13 12 11 14 16 16 13 12 12 11 14 15 13 16 23 22 18 15 13 13 14 14 13 14 14 15
6 6 6 3 3 4 10 13 12 9 8 9 14 11 14 12 13 12 13 12 11 11 11 12 16 12 12 12 12 12 12 16 17 23 26 19 18 17 15 14 13 13 14 14 14
6 9 7 3 3 8 13 12 10 8 8 10 12 12 12 12 12 13 13 11 11 12 11 12 14 15 13 14 13 13 14 13 13 15 20 21 18 12 12 13 13 12 12 13 13
8 12 6 4 10 9 12 11 9 10 8 9 9 10 12 11 13 14 14 12 11 11 13 11 12 17 14 10 10 11 13 12 16 18 16 17 16 10 12 12 12 12 11 12 12
11 10 6 5 12 12 11 11 9 10 10 10 10 9 10 11 13 12 11 10 9 9 10 10 13 22 19 14 11 12 12 11 12 13 17 18 16 10 10 10 11 11 12 13 14
10 14 10 8 8 11 11 12 12 9 9 9 10 10 11 12 11 12 12 9 9 9 7 8 13 17 18 15 13 15 13 12 13 17 17 16 15 12 11 12 12 13 14 14 14
10 13 11 14 11 10 11 11 12 13 10 9 11 10 10 13 13 13 11 12 11 9 11 10 16 14 14 12 13 14 14 14 15 14 18 15 15 14 13 13 14 15 14 14 14
12 14 13 14 12 11 11 13 13 10 9 11 11 11 10 12 12 15 12 12 12 12 12 13 18 16 20 14 14 16 15 15 14 14 14 14 15 12 15 15 16 15 15 14 14
11 12 13 14 14 13 12 11 11 10 12 10 10 11 12 12 11 11 12 12 12 13 14 15 18 21 24 17 18 23 18 15 15 15 15 17 15 16 15 15 15 15 14 14 14